{"data":{"norad_id":65447,"intl_designator":"2025-194P","name":"STARLINK-34920","alt_names":[],"object_type":"PAYLOAD","status":"ACTIVE","operator":null,"country":"US","launch_date":"2025-09-03","launch_site_code":"AFWTR","launch_vehicle":null,"mission":null,"orbit_class":"UNKNOWN","rcs_meters":null,"size_class":null,"mass_kg":null,"dimensions":null,"purposes":["comms"],"wikipedia_slug":null,"has_3d_model":false,"image_url":null,"decayed_at":null,"tle_current":{"epoch":"2026-05-25T03:10:21.748224Z","epoch_age_seconds":73879,"freshness":"FRESH","line1":"1 65447U 25194P   26145.13219616  .00003673  00000+0  25841-3 0  9995","line2":"2 65447  97.4499 359.4166 0002210  80.3879 279.7598 15.05657791 41158","mean_motion":15.05657791,"eccentricity":0.000221,"inclination_deg":97.4499,"raan_deg":359.4166,"arg_perigee_deg":80.3879,"mean_anomaly_deg":279.7598,"bstar":0.00025841,"rev_number":4115,"period_min":95.639262029362,"perigee_km":547.95625106149,"apogee_km":551.01826098265,"semimajor_km":6927.6242560221,"source":"CELESTRAK","updated_at":"2026-05-25T13:38:20.808484Z"}}}